Weather History for KHWV - December, 2013

Change the Weather History Date:

Sunday, December 22, 2013

  Actual Average (KISP) Record (KISP)
Temperature  
Mean Temperature 56 °F 34 °F  
Max Temperature 59 °F 41 °F 61 °F (2013)
Min Temperature 53 °F 26 °F 9 °F (1989)
Degree Days  
Heating Degree Days 9 31  
Month to date heating degree days 618  
Since 1 July heating degree days 1634  
Cooling Degree Days 0 0  
Month to date cooling degree days 0  
Year to date cooling degree days 787  
Growing Degree Days 6 (Base 50)    
Moisture  
Dew Point 53 °F    
Average Humidity 93    
Maximum Humidity 100    
Minimum Humidity 80    
Precipitation  
Precipitation 0.00 in 0.12 in 0.32 in (2006)
Month to date precipitation 2.96  
Year to date precipitation 45.14  
Snow  
Snow 0.00 in 0.20 in 1.00 in (2000)
Month to date snowfall 3.3  
Since 1 July snowfall 3.8  
Snow Depth -    
Sea Level Pressure  
Sea Level Pressure 29.93 in    
Wind  
Wind Speed 14 mph (SSW)    
Max Wind Speed 21 mph    
Max Gust Speed 31 mph    
Visibility 6 miles    
Events Fog , Rain    
T = Trace of Precipitation, MM = Missing Value Source: NWS Daily Summary

Daily Weather History Graph

Daily Weather History Graph

Search for Another Location

Airport or City:

Trip Planner

Search our weather history database for the weather conditions in past years. The results will help you decide how hot, cold, wet, or windy it might be!

Date:

Astronomy

Dec. 22, 2013 Rise Set
Actual Time 7:12 AM EST 4:27 PM EST
Civil Twilight 6:41 AM EST 4:58 PM EST
Nautical Twilight 6:07 AM EST 5:33 PM EST
Astronomical Twilight 5:33 AM EST 6:06 PM EST
Moon 9:39 PM EST (12/22) 10:06 AM EST (12/22)
Length of Visible Light 10h 16m
Length of Day
9h 14m
Waning Gibbous, 77% of the Moon is Illuminated
Dec 22
Waning Gibbous
Dec 25
Last Quarter
Jan 1
New
Jan 7
First Quarter
Jan 15
Full

Hourly Weather History & Observations

Time (EST) Temp. Dew Point Humidity Pressure Visibility Wind Dir Wind Speed Gust Speed Precip Events Conditions
12:54 AM 55.4 °F 53.6 °F 94% 29.95 in 9.0 mi SW 15.0 mph 21.9 mph N/A   Mostly Cloudy
12:56 AM 55.0 °F 53.1 °F 93% 29.95 in 9.0 mi SW 15.0 mph 21.9 mph N/A   Mostly Cloudy
1:34 AM 54.0 °F 52.0 °F 93% 29.93 in 6.0 mi SW 10.4 mph - N/A   Overcast
1:56 AM 54.0 °F 52.0 °F 93% 29.93 in 6.0 mi SW 10.4 mph - N/A   Overcast
2:56 AM 54.0 °F 52.0 °F 93% 29.93 in 6.0 mi SW 13.8 mph 24.2 mph N/A   Overcast
3:49 AM 55.0 °F 53.1 °F 93% 29.90 in 8.0 mi SSW 15.0 mph 26.5 mph N/A   Overcast
3:56 AM 55.0 °F 54.0 °F 96% 29.90 in 9.0 mi SW 13.8 mph 23.0 mph N/A   Overcast
4:45 AM 54.0 °F 53.1 °F 97% 29.87 in 6.0 mi SSW 12.7 mph - N/A   Overcast
4:56 AM 55.0 °F 53.1 °F 93% 29.88 in 6.0 mi SW 15.0 mph 20.7 mph N/A   Overcast
5:56 AM 55.9 °F 54.0 °F 93% 29.89 in 2.5 mi SSW 13.8 mph 25.3 mph N/A   Overcast
6:04 AM 55.0 °F 54.0 °F 96% 29.88 in 1.8 mi SSW 16.1 mph 25.3 mph N/A   Overcast
6:45 AM 54.0 °F 54.0 °F 100% 29.88 in 0.8 mi SSW 17.3 mph 29.9 mph N/A   Mist
6:56 AM 55.0 °F 54.0 °F 96% 29.88 in 0.8 mi SSW 18.4 mph 29.9 mph N/A   Mist
7:06 AM 55.0 °F 54.0 °F 96% 29.89 in 1.0 mi SSW 13.8 mph 28.8 mph N/A   Overcast
7:56 AM 55.0 °F 54.0 °F 96% 29.91 in 0.5 mi SSW 20.7 mph 29.9 mph N/A Fog Fog
8:21 AM 54.0 °F 54.0 °F 100% 29.92 in 0.2 mi SW 12.7 mph 27.6 mph N/A Fog Fog
8:36 AM 55.0 °F 54.0 °F 96% 29.93 in 0.5 mi SSW 18.4 mph 31.1 mph N/A Fog Fog
8:56 AM 55.0 °F 54.0 °F 96% 29.93 in 0.2 mi SSW 18.4 mph 29.9 mph N/A Fog Fog
9:56 AM 54.0 °F 54.0 °F 100% 29.95 in 0.2 mi SSW 16.1 mph 24.2 mph N/A Fog Fog
10:23 AM 54.0 °F 54.0 °F 100% 29.95 in 0.5 mi SSW 15.0 mph 24.2 mph N/A Fog Fog
10:56 AM 54.0 °F 54.0 °F 100% 29.96 in 1.0 mi SW 11.5 mph 20.7 mph N/A   Overcast
11:56 AM 53.1 °F 52.0 °F 96% 29.95 in 1.5 mi SW 12.7 mph 20.7 mph N/A   Overcast
12:11 PM 53.1 °F 52.0 °F 96% 29.94 in 2.5 mi SSW 12.7 mph 19.6 mph N/A   Overcast
12:19 PM 53.1 °F 52.0 °F 96% 29.94 in 4.0 mi SW 13.8 mph 18.4 mph N/A   Overcast
12:52 PM 53.6 °F 53.6 °F 100% 29.94 in 10.0 mi SW 5.8 mph - N/A   Overcast
12:56 PM 54.0 °F 53.1 °F 97% 29.94 in 10.0 mi SW 8.1 mph - N/A   Overcast
1:56 PM 55.9 °F 53.1 °F 90% 29.93 in 10.0 mi South 9.2 mph - N/A   Mostly Cloudy
2:03 PM 55.0 °F 53.1 °F 93% 29.93 in 10.0 mi SSW 9.2 mph - N/A   Mostly Cloudy
2:56 PM 55.0 °F 52.0 °F 89% 29.93 in 10.0 mi SSW 13.8 mph - N/A   Overcast
3:56 PM 55.0 °F 52.0 °F 89% 29.91 in 8.0 mi South 17.3 mph 28.8 mph 0.00 in Rain Light Rain
4:56 PM 55.0 °F 53.1 °F 93% 29.94 in 10.0 mi SSW 10.4 mph 24.2 mph 0.00 in   Mostly Cloudy
5:56 PM 57.0 °F 51.1 °F 81% 29.95 in 10.0 mi SSW 12.7 mph 25.3 mph N/A   Partly Cloudy
6:56 PM 55.0 °F 48.9 °F 80% 29.94 in 10.0 mi SSW 16.1 mph 28.8 mph N/A   Mostly Cloudy
7:56 PM 57.0 °F 51.1 °F 81% 29.97 in 10.0 mi West 16.1 mph 24.2 mph 0.00 in   Clear
8:03 PM 57.9 °F 52.0 °F 81% 29.96 in 10.0 mi SW 15.0 mph 28.8 mph N/A   Clear
8:56 PM 59.0 °F 53.1 °F 81% 29.99 in 10.0 mi SW 12.7 mph 24.2 mph N/A   Clear
9:56 PM 59.0 °F 54.0 °F 83% 29.99 in 10.0 mi SSW 15.0 mph 21.9 mph N/A   Clear
10:56 PM 55.9 °F 53.1 °F 90% 30.00 in 10.0 mi SSW 9.2 mph - N/A   Partly Cloudy
11:56 PM 55.9 °F 53.1 °F 90% 29.99 in 10.0 mi SSW 10.4 mph - N/A   Mostly Cloudy